Weather History for Carbondale, IL

Change the Weather History Date:

Saturday, September 15, 2012

  Actual Average Record
Temperature  
Mean Temperature 65 °F -  
Max Temperature 75 °F 80 °F 106 °F (1939)
Min Temperature 55 °F 55 °F 38 °F (1923)
Growing Degree Days 15 (Base 50)    
Moisture  
Dew Point 53 °F    
Average Humidity 68    
Maximum Humidity 93    
Minimum Humidity 38    
Precipitation  
Precipitation 0.01 in - - ()
Sea Level Pressure  
Sea Level Pressure 30.22 in    
Wind  
Wind Speed 4 mph (East)    
Max Wind Speed 13 mph    
Max Gust Speed 20 mph    
Visibility 10 miles    
Events Rain    
Averages and records for this station are not official NWS values.
T = Trace of Precipitation, MM = Missing Value Source: NWS Daily Summary

Daily Weather History Graph

Daily Weather History Graph

Search for Another Location

Airport:

Trip Planner

Search our weather history database for the weather conditions in past years. The results will help you decide how hot, cold, wet, or windy it might be!

Date:

Astronomy

Sep. 15, 2012 Rise Set
Actual Time 6:39 AM CDT 7:04 PM CDT
Civil Twilight 6:12 AM CDT 7:30 PM CDT
Nautical Twilight 5:42 AM CDT 8:01 PM CDT
Astronomical Twilight 5:10 AM CDT 8:32 PM CDT
Moon 6:09 AM CDT (9/15) 6:35 PM CDT (9/15)
Length of Visible Light 13h 17m
Length of Day
12h 24m
Waning Crescent, 0% of the Moon is Illuminated
Sep 15
Waning Crescent
Sep 15
New
Sep 22
First Quarter
Sep 29
Full
Oct 8
Last Quarter

Hourly Weather History & Observations

Time (CDT) Temp. Dew Point Humidity Pressure Visibility Wind Dir Wind Speed Gust Speed Precip Events Conditions
12:52 AM 60.1 °F 54.0 °F 80% 30.29 in 10.0 mi Calm Calm - N/A   Clear
1:52 AM 57.9 °F 54.0 °F 87% 30.28 in 10.0 mi NE 3.5 mph - N/A   Clear
3:52 AM 57.0 °F 51.1 °F 81% 30.26 in 10.0 mi NNE 3.5 mph - N/A   Clear
4:52 AM 55.9 °F 51.1 °F 84% 30.27 in 10.0 mi NE 3.5 mph - N/A   Clear
5:52 AM 55.9 °F 50.0 °F 80% 30.27 in 10.0 mi Calm Calm - N/A   Clear
6:52 AM 55.9 °F 50.0 °F 80% 30.29 in 10.0 mi NNE 3.5 mph - N/A   Clear
7:52 AM 57.9 °F 51.1 °F 78% 30.30 in 10.0 mi NE 3.5 mph - N/A   Clear
9:52 AM 70.0 °F 51.1 °F 51% 30.28 in 10.0 mi ENE 12.7 mph 18.4 mph N/A   Clear
10:52 AM 72.0 °F 46.0 °F 40% 30.26 in 10.0 mi East 12.7 mph 19.6 mph N/A   Clear
11:52 AM 72.0 °F 46.9 °F 41% 30.25 in 10.0 mi ESE 11.5 mph - N/A   Clear
1:52 PM 75.0 °F 48.0 °F 38% 30.21 in 10.0 mi East 9.2 mph - N/A   Scattered Clouds
2:52 PM 75.0 °F 48.0 °F 38% 30.19 in 10.0 mi East 6.9 mph - N/A   Overcast
3:52 PM 73.9 °F 48.0 °F 40% 30.18 in 10.0 mi ESE 5.8 mph - N/A   Mostly Cloudy
4:52 PM 72.0 °F 52.0 °F 49% 30.17 in 10.0 mi ESE 3.5 mph - N/A   Mostly Cloudy
5:52 PM 70.0 °F 55.9 °F 61% 30.16 in 10.0 mi SSE 3.5 mph - 0.00 in Rain Light Rain
6:52 PM 66.9 °F 60.1 °F 79% 30.16 in 10.0 mi Calm Calm - 0.00 in   Overcast
7:52 PM 64.9 °F 61.0 °F 87% 30.15 in 10.0 mi SE 4.6 mph - 0.00 in Rain Light Rain
8:52 PM 64.0 °F 62.1 °F 93% 30.14 in 10.0 mi Calm Calm - 0.01 in   Mostly Cloudy
10:52 PM 64.0 °F 61.0 °F 90% 30.15 in 10.0 mi Calm Calm - N/A   Overcast
11:52 PM 64.0 °F 61.0 °F 90% 30.14 in 10.0 mi Calm Calm - N/A   Overcast